Location: Casilda
(33.0440°S, 61.1680°W)
Time: 18:21:56
(UTC-03:00)

ISS - Pass Details

Date: 27 November 2020
Orbit: 418 x 420 km, 51.6° (Epoch: 04 December)

Event Time Altitude Azimuth Distance (km) Brightness Sun altitude
Exits shadow 04:47:51 16° 273° (W) 1,222 -1.9 -11.9°
Maximum altitude 04:50:03 30° 218° (SW) 797 -2.4 -11.5°
Drops below altitude 10° 04:53:08 10° 154° (SSE) 1,529 0.1 -11.0°
Sets 04:55:25 0° 143° (SE) 2,401 1.7 -10.6°
